Date String (YYYY-MM-DD hh:mm:ss) UTC,Instrument flags,Ambient pressure (hPa),Sample flow (lpm),Bypass flow (lpm),Sample temperature (°C),Ambient temperature (°C),ASC tube jacket temperature (°C),LED temperature (°C),Box temperature (°C),Sample RH (%),Span deviation,Mass concentration (μg/m³),Mass concentration (μg/m³),Mass concentration (μg/m³)
DateTimeUTC,F1_M11,P_M11,Q1_M11,Q2_M11,T1_M11,T2_M11,T3_M11,T4_M11,T5_M11,U1_M11,ZSPAN_M11,X0_M11,X2_M11,X1_M11
2023-01-17 14:00:00,,0814.1,5.00,0.00,22.1,22.5,00.0,30.8,24.1,13.3,-000.7,0014.52,0009.36,0008.90
2023-01-17 14:01:00,,0814.2,5.00,0.00,22.2,22.0,00.0,30.9,24.1,13.3,-000.8,0014.74,0009.40,0008.93
2023-01-17 14:02:00,,0814.1,5.00,0.00,22.2,21.6,00.0,30.9,24.0,13.3,-000.4,0014.78,0009.47,0008.98
2023-01-17 14:03:00,,0814.1,5.00,0.00,22.1,21.3,00.0,30.9,23.9,13.2,-000.7,0014.43,0009.53,0009.02
2023-01-17 14:04:00,,0814.1,5.00,0.00,22.2,21.1,00.0,30.9,23.9,13.2,-000.2,0014.10,0009.59,0009.07
2023-01-17 14:05:00,,0814.4,4.99,0.00,22.1,20.9,00.0,31.0,23.9,13.2,-000.4,0013.63,0009.65,0009.11
2023-01-17 14:06:00,,0814.2,5.00,0.00,22.1,20.9,00.0,31.0,23.9,13.2,-000.2,0013.47,0009.66,0009.15
2023-01-17 14:07:00,,0814.1,4.99,0.00,22.1,20.8,00.0,31.0,23.9,13.2,-000.2,0013.57,0009.71,0009.19
2023-01-17 14:08:00,,0814.1,4.99,0.00,22.1,20.8,00.0,31.0,23.9,13.2,-000.1,0013.73,0009.77,0009.20
2023-01-17 14:09:00,,0814.2,4.99,0.00,22.1,20.7,00.0,31.0,23.9,13.1,-000.1,0013.80,0009.76,0009.18
2023-01-17 14:10:00,,0814.5,5.00,0.00,22.1,20.7,00.0,31.0,23.9,13.1,-000.1,0013.95,0009.74,0009.14
2023-01-17 14:11:00,,0814.4,4.97,0.00,22.1,20.6,00.0,31.0,23.9,13.2,-000.1,0013.79,0009.74,0009.11
2023-01-17 14:12:00,,0814.1,5.00,0.00,22.1,20.5,00.0,31.0,23.8,13.2,-000.2,0013.87,0009.77,0009.14
2023-01-17 14:13:00,,0814.2,5.01,0.00,22.1,20.5,00.0,31.0,23.8,13.2,-000.3,0014.02,0009.78,0009.15
2023-01-17 14:14:00,,0814.5,4.99,0.00,22.1,20.5,00.0,31.0,23.8,13.2,-000.1,0014.39,0009.80,0009.14
2023-01-17 14:15:00,,0814.0,4.99,0.00,22.1,20.4,00.0,31.0,23.8,13.2,-000.3,0014.65,0009.82,0009.13
2023-01-17 14:16:00,,0814.1,5.01,0.00,22.1,20.4,00.0,31.0,23.8,13.2,0000.3,0015.23,0009.82,0009.11
2023-01-17 14:17:00,,0814.0,5.00,0.00,22.0,20.5,00.0,31.0,23.7,13.2,-000.1,0015.41,0009.84,0009.13
2023-01-17 14:18:00,,0814.1,5.00,0.00,22.0,20.6,00.0,30.9,23.8,13.2,-000.2,0015.87,0009.85,0009.14
2023-01-17 14:19:00,,0814.1,5.00,0.00,22.1,21.6,00.0,30.9,24.0,13.2,-000.0,0015.93,0009.88,0009.16
2023-01-17 14:20:00,,0814.1,5.00,0.00,22.2,22.5,00.0,30.9,24.2,13.1,-000.1,0015.91,0009.91,0009.21
2023-01-17 14:21:00,,0814.1,4.99,0.00,22.3,22.8,00.0,31.0,24.4,13.0,-000.3,0016.75,0009.96,0009.27
2023-01-17 14:22:00,,0814.1,4.99,0.00,22.4,22.4,00.0,31.0,24.3,13.0,-000.1,0016.99,0010.00,0009.32
2023-01-17 14:23:00,,0814.1,5.00,0.00,22.4,22.0,00.0,31.1,24.3,13.0,0000.2,0016.67,0009.96,0009.32
2023-01-17 14:24:00,,0814.1,5.00,0.00,22.4,21.6,00.0,31.1,24.2,13.0,0000.0,0016.79,0009.99,0009.34
2023-01-17 14:25:00,,0814.1,5.01,0.00,22.4,21.2,00.0,31.1,24.1,13.1,-000.8,0016.66,0010.03,0009.40
2023-01-17 14:26:00,,0814.1,5.00,0.00,22.3,21.0,00.0,31.1,24.1,13.1,-001.4,0016.28,0010.04,0009.46
2023-01-17 14:27:00,,0814.2,4.98,0.00,22.3,20.8,00.0,31.1,24.0,13.1,-001.7,0015.84,0010.11,0009.53
2023-01-17 14:28:00,,0814.4,5.04,0.00,22.3,20.6,00.0,31.1,24.0,13.1,-001.2,0015.79,0010.18,0009.60
2023-01-17 14:29:00,,0814.4,5.01,0.00,22.3,20.4,00.0,31.1,23.9,13.2,-001.2,0015.48,0010.26,0009.66
2023-01-17 14:30:00,,0814.2,5.00,0.00,22.2,20.3,00.0,31.1,23.9,13.2,-001.2,0015.58,0010.34,0009.73
2023-01-17 14:31:00,,0814.2,4.99,0.00,22.2,20.2,00.0,31.1,23.8,13.2,-000.9,0015.87,0010.40,0009.80
2023-01-17 14:32:00,,0814.2,5.00,0.00,22.2,20.2,00.0,31.1,23.8,13.2,-000.8,0014.99,0010.46,0009.87
2023-01-17 14:33:00,,0814.3,5.01,0.00,22.1,20.1,00.0,31.1,23.7,13.2,-000.7,0014.82,0010.50,0009.93
2023-01-17 14:34:00,,0814.3,5.00,0.00,22.1,20.0,00.0,31.1,23.6,13.3,-000.7,0015.04,0010.61,0009.99
2023-01-17 14:35:00,,0814.3,5.00,0.00,22.0,19.9,00.0,31.0,23.5,13.3,-000.7,0014.80,0010.63,0010.03
2023-01-17 14:36:00,,0814.5,5.00,0.00,22.0,19.9,00.0,31.0,23.5,13.3,0000.1,0014.72,0010.65,0010.05
2023-01-17 14:37:00,,0814.5,5.00,0.00,21.9,19.8,00.0,31.0,23.4,13.3,0000.2,0014.90,0010.68,0010.06
2023-01-17 14:38:00,,0814.3,5.00,0.00,21.9,20.2,00.0,30.9,23.5,13.3,-000.1,0014.81,0010.66,0010.04
2023-01-17 14:39:00,,0814.5,5.02,0.00,22.0,21.4,00.0,30.9,23.8,13.3,-000.4,0014.69,0010.58,0009.97
2023-01-17 14:40:00,,0814.2,5.00,0.00,22.1,22.4,00.0,30.9,24.1,13.2,-000.2,0014.51,0010.49,0009.91
2023-01-17 14:41:00,,0814.2,4.99,0.00,22.2,22.4,00.0,30.9,24.1,13.1,-000.3,0014.24,0010.34,0009.79
2023-01-17 14:42:00,,0814.3,5.00,0.00,22.2,21.8,00.0,31.0,24.1,13.1,-000.4,0013.93,0010.30,0009.75
2023-01-17 14:43:00,,0814.5,5.00,0.00,22.2,21.4,00.0,31.0,23.9,13.1,-000.7,0013.97,0010.27,0009.70
2023-01-17 14:44:00,,0814.4,5.00,0.00,22.2,20.9,00.0,31.0,23.8,13.2,-000.9,0014.32,0010.22,0009.65
2023-01-17 14:45:00,,0814.4,5.01,0.00,22.1,20.6,00.0,31.0,23.7,13.2,-001.2,0014.06,0010.09,0009.56
2023-01-17 14:46:00,,0814.4,4.99,0.00,22.1,20.4,00.0,31.0,23.7,13.2,-001.2,0014.01,0009.95,0009.44
2023-01-17 14:47:00,,0814.2,5.00,0.00,22.0,20.2,00.0,31.0,23.6,13.2,-001.7,0014.34,0009.84,0009.32
2023-01-17 14:48:00,,0814.3,5.01,0.00,22.0,20.0,00.0,31.0,23.5,13.2,-001.5,0014.08,0009.74,0009.20
2023-01-17 14:49:00,,0814.3,5.00,0.00,21.9,19.9,00.0,31.0,23.5,13.3,-000.9,0013.92,0009.63,0009.11
2023-01-17 14:50:00,,0814.3,5.01,0.00,21.9,19.9,00.0,30.9,23.5,13.3,-001.2,0014.02,0009.56,0009.00
2023-01-17 14:51:00,,0814.4,5.01,0.00,21.9,19.9,00.0,30.9,23.5,13.3,-001.5,0014.20,0009.41,0008.84
2023-01-17 14:52:00,,0814.4,5.01,0.00,21.9,20.0,00.0,30.9,23.5,13.3,-001.5,0014.28,0009.28,0008.71
2023-01-17 14:53:00,,0814.3,4.98,0.00,21.9,20.0,00.0,30.9,23.5,13.3,-001.1,0014.07,0009.08,0008.54
2023-01-17 14:54:00,,0814.3,5.01,0.00,21.9,20.1,00.0,30.8,23.5,13.3,-001.0,0013.73,0008.87,0008.35
2023-01-17 14:55:00,,0814.5,5.00,0.00,21.8,20.2,00.0,30.8,23.5,13.4,-001.1,0013.20,0008.68,0008.13
2023-01-17 14:56:00,,0814.2,5.01,0.00,21.8,20.4,00.0,30.8,23.5,13.4,-000.8,0012.98,0008.46,0007.93
2023-01-17 14:57:00,,0814.3,5.01,0.00,21.9,21.5,00.0,30.8,23.8,13.4,-000.8,0012.66,0008.34,0007.80
2023-01-17 14:58:00,,0814.4,4.98,0.00,22.1,22.4,00.0,30.8,24.0,13.3,-000.9,0011.92,0008.14,0007.64
2023-01-17 14:59:00,,0814.4,4.96,0.00,22.1,22.3,00.0,30.8,24.1,13.2,-001.2,0011.65,0007.93,0007.47
